Brier Island, Nova Scotia

5:58 AM ADT on July 21, 2017 (GMT -0300)
Brier Island

Weather History for CWVU - January, 2013

Change the Weather History Date:

Saturday, January 26, 2013

  Actual Average Record
Temperature  
Mean Temperature 18 °F -  
Max Temperature 20 °F - - ()
Min Temperature 16 °F - - ()
Degree Days  
Heating Degree Days 47    
Moisture  
Dew Point 12 °F    
Average Humidity 76    
Maximum Humidity 89    
Minimum Humidity 56    
Precipitation  
Precipitation 0.00 in - - ()
Sea Level Pressure  
Sea Level Pressure 29.99 in    
Wind  
Wind Speed 14 mph ()    
Max Wind Speed 29 mph    
Max Gust Speed 39 mph    
T = Trace of Precipitation, MM = Missing Value Source: Averaged Metar Reports

Daily Weather History Graph

Daily Weather History Graph

Search for Another Location

Airport or City:

Trip Planner

Search our weather history database for the weather conditions in past years. The results will help you decide how hot, cold, wet, or windy it might be!

Date:

Astronomy

Jan. 26, 2013 Rise Set
Actual Time 7:49 AM AST 5:27 PM AST
Civil Twilight 7:18 AM AST 5:58 PM AST
Nautical Twilight 6:43 AM AST 6:33 PM AST
Astronomical Twilight 6:08 AM AST 7:07 PM AST
Moon 5:19 PM AST (1/26) 7:03 AM AST (1/26)
Length of Visible Light 10h 40m
Length of Day
9h 37m
Full, 100% of the Moon is Illuminated
Jan 26
Full
Jan 27
Full
Feb 3
Last Quarter
Feb 10
New
Feb 17
First Quarter

Hourly Weather History & Observations

Time (AST) Temp. Windchill Dew Point Humidity Pressure Visibility Wind Dir Wind Speed Gust Speed Precip Events Conditions
12:00 AM 19.8 °F 6.5 °F 14.0 °F 78% 30.08 in - NW 13.8 mph - N/A   Unknown
1:00 AM 20.3 °F 9.0 °F 15.1 °F 80% 30.08 in - NW 10.4 mph - N/A   Unknown
2:00 AM 19 °F - 12 °F 65% 30.07 in - NNW 12.7 mph - -  
2:00 AM 18.7 °F 5.7 °F 12.2 °F 76% 30.07 in - NNW 12.7 mph - N/A   Unknown
3:00 AM 18.7 °F 7.8 °F 11.8 °F 75% 30.06 in - NNW 9.2 mph - N/A   Unknown
4:00 AM 18.9 °F 8.0 °F 10.8 °F 71% 30.04 in - NNW 9.2 mph - N/A   Unknown
5:00 AM 19.9 °F 7.3 °F 14.9 °F 81% 30.02 in - NW 12.7 mph - N/A   Unknown
6:00 AM 19.2 °F 3.8 °F 16.3 °F 89% 29.99 in - NNW 18.4 mph - N/A   Unknown
7:00 AM 18.1 °F 4.4 °F 14.0 °F 84% 29.99 in - NNW 13.8 mph 19.6 mph N/A   Unknown
8:00 AM 17 °F - 14 °F 81% 29.99 in - NNW 17.3 mph - -  
8:00 AM 17.4 °F 1.9 °F 13.6 °F 85% 29.99 in - NNW 17.3 mph - N/A   Unknown
9:00 AM 16.7 °F 1.5 °F 12.6 °F 84% 30.01 in - NW 16.1 mph - N/A   Unknown
10:00 AM 17.4 °F 2.4 °F 12.4 °F 81% 30.00 in - NW 16.1 mph - N/A   Unknown
11:00 AM 17.1 °F 2.0 °F 12.0 °F 81% 30.00 in - NW 16.1 mph 25.3 mph N/A   Unknown
12:00 PM 18.0 °F 2.2 °F 14.0 °F 84% 29.97 in - NW 18.4 mph - N/A   Unknown
1:00 PM 17.2 °F 1.2 °F 12.6 °F 82% 29.95 in - NNW 18.4 mph 25.3 mph N/A   Unknown
2:00 PM 19 °F - 14 °F 73% 29.91 in - NNW 19.6 mph - -  
2:00 PM 18.9 °F 2.9 °F 14.0 °F 81% 29.91 in - NNW 19.6 mph 25.3 mph N/A   Unknown
3:00 PM 18.9 °F 2.1 °F 11.3 °F 72% 29.91 in - NW 21.9 mph 27.6 mph N/A   Unknown
5:00 PM 19.2 °F 4.3 °F 10.6 °F 69% 29.91 in - NW 17.3 mph - N/A   Unknown
6:00 PM 19.2 °F 2.2 °F 10.0 °F 67% 29.93 in - WNW 23.0 mph - N/A   Unknown
7:00 PM 19.2 °F 1.9 °F 10.0 °F 67% 29.95 in - WNW 24.2 mph 31.1 mph N/A   Unknown
8:00 PM 18 °F - 9 °F 56% 29.96 in - NW 26.5 mph - -  
8:00 PM 18.3 °F -0.0 °F 9.1 °F 67% 29.96 in - NW 26.5 mph 33.4 mph N/A   Unknown
9:00 PM 18.3 °F 0.7 °F 11.1 °F 73% 29.95 in - NW 24.2 mph 29.9 mph N/A   Unknown
10:00 PM 17.2 °F -1.5 °F 10.9 °F 76% 29.96 in - WNW 26.5 mph - N/A   Unknown
11:00 PM 17.8 °F -1.4 °F 11.8 °F 78% 29.98 in - WNW 28.8 mph 39.1 mph N/A   Unknown